Temperature
14 14 14 14 14 14 14 14 14 14 13 13 13 13 13 13 13 13 13 13 13 13 13 13 13 13 13 13 13 13 13 12 12 12 12 12 11 11 11 11 11 11 11
13 13 13 14 13 13 13 13 13 13 13 13 13 13 13 13 13 13 13 13 13 13 13 13 13 12 12 12 12 12 12 12 12 12 12 11 11 11 11 11 11 11 11
13 13 13 13 13 13 13 13 13 13 13 13 13 13 13 12 12 12 12 12 13 13 13 13 13 12 12 12 12 12 12 12 12 12 12 12 11 11 11 11 11 11 11
13 13 13 13 13 13 13 13 13 13 13 13 12 12 12 12 12 12 12 12 12 12 12 12 12 12 12 12 12 12 12 12 12 11 11 11 11 11 11 10 10 11 11
12 12 13 13 13 13 13 13 13 13 13 12 12 12 12 12 12 12 12 12 12 12 12 12 12 12 12 12 12 11 11 11 11 11 11 11 11 11 11 10 10 10 10
12 12 12 12 12 12 12 12 12 12 12 12 12 12 12 12 12 12 11 11 12 12 12 12 12 12 12 12 11 11 11 11 11 11 11 11 11 10 10 10 10 10 10
11 12 12 12 12 12 12 12 12 12 12 12 12 11 11 11 11 11 11 11 11 11 11 11 11 11 11 11 11 11 11 11 11 10 10 10 10 10 10 10 10 10 10
11 11 11 12 12 12 12 12 12 12 12 11 11 11 11 11 11 11 11 11 11 11 11 11 11 11 11 11 11 10 10 10 10 10 10 10 10 9 9 9 9 9 9
11 11 11 11 11 11 11 11 11 12 12 11 11 11 11 10 10 10 10 10 10 10 10 10 10 10 10 10 10 10 10 10 10 10 10 9 9 9 9 9 9 9 9
10 10 10 11 11 11 11 11 11 11 11 11 11 11 11 11 10 10 10 10 10 10 10 10 10 10 10 10 10 10 10 9 9 9 9 9 9 9 9 9 9 9 9
9 10 10 10 10 10 10 11 11 11 11 11 11 11 10 10 10 10 9 10 10 10 9 9 9 9 9 9 9 9 9 9 9 9 9 9 9 9 9 8 8 8 8
9 9 9 9 10 10 10 10 10 10 10 10 10 10 10 10 10 10 9 9 9 9 9 9 9 9 9 9 9 9 9 9 8 8 8 8 8 8 8 8 8 8 8
8 9 9 9 9 9 9 10 10 10 10 10 10 10 10 10 10 9 9 9 9 8 8 9 9 9 8 8 8 8 8 8 8 8 8 8 8 8 8 8 8 7 7
8 8 8 8 9 9 9 9 9 9 9 9 9 9 9 9 9 9 9 8 8 8 8 8 8 8 8 8 8 8 8 8 8 8 8 8 7 7 7 7 7 7 7
8 8 8 8 8 8 8 9 9 9 9 9 9 9 9 9 8 8 8 8 8 7 7 7 7 8 7 7 7 7 7 7 7 7 7 7 7 7 7 7 7 7 6
7 7 7 7 8 8 8 8 8 8 8 8 8 8 8 8 8 8 8 8 8 7 7 7 7 7 7 7 7 7 7 7 6 6 6 6 6 6 6 6 6 6 6
7 7 7 7 7 7 7 7 7 7 7 8 7 7 7 7 7 7 7 7 7 7 7 6 6 6 6 6 6 6 6 6 6 6 6 6 6 6 6 5 5 5 5
6 6 6 6 6 7 7 7 7 7 7 7 7 7 7 7 7 7 7 6 6 6 6 6 6 6 6 6 6 6 5 5 5 6 5 5 5 5 5 5 5 5 5
5 5 5 5 6 6 6 6 6 6 6 6 6 6 6 6 6 6 6 6 6 5 5 5 5 5 5 5 5 5 5 5 5 5 5 5 5 4 4 4 4 4 4
5 5 5 5 5 5 5 6 6 6 6 6 6 6 6 6 6 6 5 5 5 5 5 4 4 4 4 4 4 4 4 4 4 4 4 4 4 4 4 4 3 4 4
4 4 4 4 4 5 5 5 5 5 5 5 5 5 5 5 5 5 5 4 4 4 4 4 4 3 3 3 3 3 3 3 3 3 3 3 3 4 3 3 3 3 3
4 4 4 4 4 4 4 4 4 4 4 4 4 4 4 4 4 4 4 4 3 3 3 3 3 3 3 3 3 2 2 2 2 2 2 3 3 3 3 3 3 3 2
3 3 3 3 3 3 3 3 3 3 4 4 4 3 3 3 3 3 3 3 3 3 3 3 2 2 2 2 2 2 2 2 2 2 2 2 2 2 2 2 2 2 2
3 3 3 3 3 3 3 3 3 3 3 3 3 3 3 3 2 2 2 2 2 2 2 2 2 2 2 1 1 1 1 1 1 1 1 1 1 1 2 2 2 2 1
2 2 2 2 2 2 2 2 2 2 2 2 2 2 2 2 2 1 1 2 2 2 1 1 1 1 1 1 1 1 1 0 0 1 1 0 0 0 1 1 1 1 1
2 2 2 2 2 2 2 2 2 1 1 1 1 1 1 1 1 1 1 1 1 1 1 1 1 1 1 0 0 0 0 -0 -0 -1 -0 -0 -0 -1 -1 0 0 0 0
Wind_Speed
4 5 5 6 6 6 6 6 5 5 5 5 5 6 5 6 7 7 7 8 8 8 7 7 6 6 5 5 4 3 3 3 3 3 3 3 3 4 5 5 5 5 5
6 5 5 5 5 7 7 7 6 5 4 4 3 5 5 6 7 7 7 8 8 7 7 6 6 5 4 4 3 3 3 2 1 1 2 2 3 3 4 4 4 4 4
8 6 4 4 5 7 8 7 5 5 4 3 3 3 5 5 6 7 8 8 7 7 7 6 6 5 4 3 3 3 2 1 1 1 1 2 2 2 2 3 3 3 4
10 7 5 4 6 7 6 5 4 4 3 3 2 2 3 4 5 6 7 8 7 6 6 5 5 4 4 3 2 2 2 1 1 1 1 1 1 1 1 2 2 2 3
10 8 5 5 7 5 3 5 4 4 4 3 3 2 2 2 3 5 5 6 7 7 6 5 5 4 3 3 2 2 1 1 1 1 1 0 1 1 2 2 2 2 3
9 8 5 5 6 4 3 4 5 4 3 4 3 2 1 1 2 2 4 5 5 6 5 5 5 3 3 2 1 2 1 1 1 1 1 2 2 2 2 2 3 3 3
8 7 5 4 4 5 5 5 4 5 3 3 3 2 2 2 2 1 2 3 3 4 5 5 4 3 2 2 1 1 2 2 2 2 2 3 3 3 3 3 3 4 4
7 6 5 5 4 4 5 5 4 4 2 3 3 3 1 1 2 1 1 2 3 3 3 4 4 3 3 2 1 1 2 3 3 3 3 3 4 4 4 4 4 4 4
5 5 5 5 5 5 5 5 5 6 4 2 2 4 4 3 1 1 1 1 2 2 2 2 3 3 3 2 1 1 2 4 4 4 4 4 4 5 5 5 5 4 5
4 5 5 5 5 5 5 5 4 4 6 4 2 1 2 3 3 1 1 1 1 1 1 1 2 2 2 2 1 1 3 3 4 4 5 5 5 5 5 5 5 5 6
2 3 4 4 4 4 4 5 4 4 4 4 3 2 2 2 2 3 2 1 1 0 1 1 1 1 1 1 0 2 3 4 4 5 5 5 5 5 5 6 5 5 6
1 2 3 3 3 3 4 4 4 5 4 4 3 3 3 3 3 3 2 2 1 1 1 0 1 1 1 0 1 2 3 4 4 5 5 5 5 6 6 6 6 6 6
1 2 2 2 2 2 3 3 4 4 4 4 4 3 3 2 2 3 3 2 1 1 0 0 0 0 0 1 2 2 3 4 4 5 6 6 6 6 6 6 6 6 6
3 3 3 3 2 3 3 3 3 3 3 4 3 3 2 2 2 3 3 3 2 1 1 2 1 1 1 2 2 2 3 3 4 5 6 6 6 5 5 5 6 7 7
3 4 3 3 3 3 3 3 3 3 3 3 3 2 2 2 2 2 3 4 4 3 3 2 1 1 2 3 3 3 4 4 5 5 5 5 6 6 6 6 6 7 8
3 4 4 3 3 2 2 3 3 3 3 2 2 3 2 1 1 1 2 2 3 4 3 3 2 2 2 3 4 3 4 5 5 5 6 6 6 6 7 7 8 8 8
4 4 4 4 4 3 3 3 3 3 3 2 1 2 2 1 1 1 1 2 2 2 4 2 1 1 2 2 3 4 4 4 5 6 7 7 8 8 7 8 8 8 9
4 4 4 4 3 3 3 3 3 3 3 3 2 2 1 1 1 1 2 2 2 2 3 4 2 2 2 3 2 2 3 4 5 7 7 8 8 9 8 8 9 9 10
4 4 4 4 3 3 3 3 3 3 3 3 2 2 1 2 2 1 2 2 2 2 2 3 2 1 1 1 1 2 3 3 5 7 7 8 9 9 10 9 10 10 10
5 4 4 4 4 3 3 3 3 3 2 2 1 1 1 2 3 3 2 3 3 2 2 2 2 1 1 1 1 2 3 3 4 6 7 8 9 9 10 10 10 10 10
5 5 4 4 3 3 3 3 4 3 3 2 1 1 1 1 2 2 2 2 3 3 2 2 2 1 2 1 2 2 3 3 4 3 3 4 6 6 8 10 11 11 11
4 4 4 4 3 2 3 4 4 4 3 2 1 0 0 0 0 0 1 2 3 3 3 3 3 3 4 3 2 3 3 4 4 2 2 5 3 5 6 8 11 12 12
5 4 4 4 4 3 4 4 4 3 3 3 2 1 1 1 0 0 0 1 2 4 5 4 4 5 5 5 4 4 4 5 6 4 3 6 4 6 7 10 12 13 12
5 5 4 4 4 4 4 4 4 3 3 2 2 2 2 2 2 1 1 1 2 3 3 3 5 5 5 4 5 5 5 4 4 3 2 5 4 5 6 9 12 12 13
5 4 4 4 4 4 4 4 4 3 2 2 2 2 2 2 3 3 1 2 2 3 4 4 5 6 6 6 4 2 2 3 5 4 2 3 3 5 5 5 9 11 12
4 4 3 3 4 4 4 4 3 3 2 2 1 2 3 3 4 3 2 2 3 4 2 2 3 5 4 4 5 4 4 4 4 4 3 3 3 3 4 4 4 7 9
Wind_Direction
171 166 162 158 158 155 152 147 148 148 148 152 158 152 150 148 151 149 152 160 158 152 147 145 141 139 134 128 124 116 108 97 83 73 64 58 62 62 57 52 47 42 41
169 170 167 164 163 162 160 155 156 150 147 141 148 151 153 153 154 152 152 158 160 158 156 153 147 147 145 142 132 127 123 110 88 68 69 68 64 58 53 40 32 28 26
172 168 170 174 171 166 158 148 145 138 142 140 146 145 145 155 157 157 155 156 160 160 162 165 160 159 160 154 147 135 131 120 105 81 69 67 64 51 36 26 18 15 13
175 166 169 179 170 160 153 155 154 148 148 146 146 153 140 145 159 163 158 158 159 159 162 168 169 168 175 171 159 150 148 137 135 107 83 60 40 15 358 358 356 352 348
177 168 169 171 164 154 158 167 155 152 152 152 153 140 139 151 156 159 155 160 160 158 158 164 167 170 184 196 199 188 184 160 159 174 188 261 316 306 302 313 315 316 323
175 166 164 162 158 158 165 163 152 145 152 155 140 114 92 124 128 146 159 158 159 157 153 146 147 157 167 182 212 229 235 247 231 218 234 254 274 284 282 294 295 304 304
166 159 159 158 163 171 175 167 157 147 137 133 110 85 30 43 87 115 138 144 148 153 147 147 146 139 134 133 159 229 241 261 278 277 271 274 276 283 282 287 291 298 292
165 165 161 167 168 166 164 168 154 146 138 144 137 129 105 14 353 24 119 158 159 141 140 156 156 155 155 149 194 235 258 263 273 282 285 283 284 286 285 285 290 296 298
159 159 159 162 167 171 172 171 169 158 158 159 144 146 149 186 219 336 344 155 156 153 152 160 163 171 174 170 194 261 269 272 274 275 279 279 281 288 288 285 291 295 298
150 154 151 156 164 166 169 172 167 159 155 163 148 106 140 147 145 157 318 341 137 157 173 149 142 154 166 171 233 300 294 290 294 288 283 281 282 284 288 289 294 299 300
137 142 145 149 154 155 163 164 156 154 159 163 163 145 116 94 104 140 179 262 342 291 198 167 143 134 163 166 294 317 314 302 301 297 290 286 285 288 292 292 295 306 311
143 125 124 133 138 142 154 161 158 158 159 157 159 154 155 150 159 149 166 183 206 257 268 125 141 147 149 82 325 328 324 315 303 303 306 304 297 294 294 295 299 303 305
146 158 121 124 131 130 136 133 143 154 155 155 163 172 166 170 160 154 151 160 176 251 320 293 255 213 358 337 322 327 326 322 317 312 307 307 303 300 299 299 304 303 301
160 149 128 129 119 118 122 124 139 144 143 149 156 161 164 180 165 162 160 156 160 253 264 254 259 258 289 288 288 302 318 319 323 319 314 314 312 304 298 300 301 300 298
140 133 132 129 117 108 117 124 128 132 131 140 146 150 172 190 175 171 162 165 169 200 242 243 243 258 280 273 281 294 305 307 311 309 308 311 310 308 299 294 295 293 292
139 140 138 134 125 120 120 123 124 118 114 124 143 141 144 163 171 172 177 182 178 188 224 226 232 254 274 281 283 290 293 305 305 303 302 299 297 296 295 295 294 292 291
146 146 149 145 139 140 138 134 137 133 131 128 130 152 165 155 145 153 171 182 180 177 219 253 248 249 240 255 300 301 297 301 300 299 299 295 290 289 288 288 289 289 288
155 150 145 142 143 146 147 142 142 143 146 150 154 152 173 161 151 165 175 190 192 189 201 227 246 246 250 242 262 283 301 297 295 294 292 293 288 287 287 289 289 287 285
159 151 146 153 156 155 149 146 148 152 154 161 164 167 197 175 184 192 189 201 198 193 197 205 239 246 261 248 266 287 289 291 294 295 291 292 290 287 284 284 287 288 286
165 159 155 160 161 157 151 144 138 137 134 135 142 160 190 199 207 205 203 203 187 176 174 186 239 260 268 269 242 266 289 285 290 296 290 293 295 292 286 286 287 286 285
159 157 152 151 148 152 159 151 146 140 135 123 105 116 181 204 210 213 208 202 191 188 186 193 230 254 263 259 257 256 278 289 284 274 283 292 295 293 291 290 287 284 282
145 146 151 151 151 163 161 162 156 153 148 147 154 201 293 245 183 238 220 219 216 209 211 213 226 237 247 249 253 263 276 293 285 272 279 289 286 280 285 285 285 284 281
150 151 158 157 163 173 172 166 156 151 154 170 182 197 248 278 336 197 283 289 250 245 234 224 228 235 237 233 231 251 256 262 269 272 283 283 281 279 285 286 286 280 279
161 164 169 169 169 182 177 174 166 157 160 176 189 197 208 233 237 219 217 256 266 260 253 234 230 239 241 236 230 241 249 269 276 265 247 273 280 281 289 285 281 277 276
164 167 173 174 177 189 186 180 172 164 162 193 214 209 207 222 251 248 221 246 280 288 301 283 277 275 271 268 266 255 256 274 285 278 245 250 272 291 288 277 275 274 275
168 167 171 181 185 193 198 191 187 176 185 215 239 241 236 237 249 246 225 221 255 272 278 303 308 298 291 275 265 248 230 253 280 278 237 234 271 302 292 266 265 273 277
Height
1522 1524 1526 1529 1530 1532 1534 1536 1538 1539 1541 1543 1544 1545 1546 1548 1549 1550 1551 1552 1553 1554 1554 1554 1555 1555 1555 1554 1554 1554 1553 1553 1552 1552 1551 1551 1550 1550 1550 1549 1549 1548 1547
1520 1522 1524 1526 1528 1530 1532 1534 1536 1538 1539 1541 1543 1544 1545 1546 1548 1549 1550 1551 1552 1553 1553 1554 1554 1554 1554 1554 1553 1553 1552 1552 1551 1551 1550 1550 1549 1549 1549 1548 1548 1547 1546
1517 1519 1521 1523 1526 1528 1530 1532 1534 1536 1538 1539 1541 1543 1544 1545 1547 1548 1549 1550 1551 1551 1552 1552 1553 1553 1553 1553 1552 1552 1551 1551 1550 1550 1549 1548 1548 1548 1547 1547 1546 1546 1545
1515 1517 1518 1521 1523 1526 1528 1530 1532 1534 1535 1537 1539 1541 1542 1543 1545 1546 1547 1548 1549 1550 1551 1551 1551 1552 1552 1552 1551 1551 1550 1550 1549 1549 1548 1547 1547 1547 1546 1545 1545 1544 1544
1512 1514 1516 1518 1521 1523 1525 1527 1529 1531 1533 1535 1537 1539 1540 1542 1543 1544 1545 1546 1547 1548 1549 1550 1550 1550 1550 1550 1550 1550 1549 1549 1548 1547 1547 1546 1546 1545 1544 1544 1543 1543 1542
1509 1511 1513 1515 1518 1520 1523 1525 1527 1529 1531 1533 1535 1537 1538 1540 1541 1542 1543 1545 1546 1546 1547 1548 1548 1548 1548 1549 1549 1548 1548 1547 1547 1546 1545 1545 1544 1543 1543 1542 1541 1541 1540
1505 1508 1510 1512 1515 1518 1520 1522 1524 1526 1528 1530 1532 1534 1536 1538 1539 1540 1541 1542 1543 1544 1545 1546 1546 1546 1546 1547 1547 1546 1546 1546 1545 1544 1544 1543 1542 1542 1541 1540 1539 1539 1538
1502 1504 1507 1509 1511 1514 1517 1519 1521 1523 1525 1527 1529 1531 1533 1536 1536 1537 1539 1540 1541 1542 1543 1544 1544 1544 1544 1544 1545 1544 1544 1543 1543 1542 1542 1541 1540 1540 1539 1538 1537 1537 1536
1499 1501 1503 1506 1509 1511 1513 1516 1518 1519 1521 1524 1526 1528 1529 1531 1533 1535 1536 1537 1538 1539 1540 1541 1542 1542 1542 1542 1542 1542 1542 1541 1541 1540 1539 1539 1538 1537 1537 1536 1535 1534 1533
1496 1498 1501 1503 1506 1508 1510 1513 1515 1517 1519 1520 1523 1524 1527 1527 1529 1531 1533 1534 1536 1537 1538 1538 1539 1539 1540 1540 1540 1539 1539 1539 1538 1537 1537 1536 1536 1535 1534 1533 1532 1531 1531
1493 1496 1498 1501 1503 1505 1507 1510 1512 1514 1515 1517 1519 1521 1523 1525 1526 1527 1529 1531 1533 1534 1535 1536 1536 1537 1537 1537 1537 1537 1536 1536 1535 1535 1534 1533 1533 1532 1531 1530 1529 1528 1528
1490 1493 1495 1498 1500 1502 1504 1507 1509 1511 1513 1515 1516 1518 1520 1521 1523 1525 1526 1527 1528 1530 1532 1533 1533 1534 1534 1534 1534 1534 1533 1533 1532 1532 1531 1530 1529 1529 1528 1527 1526 1525 1524
1487 1489 1492 1495 1497 1499 1502 1504 1506 1509 1510 1512 1514 1515 1517 1519 1521 1522 1523 1524 1525 1526 1528 1529 1530 1530 1531 1531 1530 1530 1530 1529 1529 1528 1527 1526 1526 1525 1525 1524 1523 1522 1521
1484 1487 1489 1492 1495 1497 1499 1501 1503 1505 1507 1509 1511 1513 1514 1516 1517 1519 1520 1521 1522 1523 1524 1525 1526 1527 1527 1527 1527 1526 1526 1526 1525 1524 1523 1523 1522 1521 1521 1520 1519 1518 1517
1482 1484 1487 1489 1492 1494 1496 1498 1500 1502 1504 1506 1508 1509 1511 1512 1514 1515 1517 1518 1519 1519 1520 1521 1522 1523 1523 1523 1523 1522 1522 1521 1521 1520 1519 1519 1518 1517 1517 1516 1515 1514 1513
1480 1482 1484 1487 1489 1492 1494 1496 1497 1499 1501 1503 1505 1506 1508 1509 1510 1511 1513 1514 1515 1516 1516 1517 1518 1519 1519 1519 1519 1518 1518 1517 1517 1516 1515 1514 1514 1513 1512 1511 1511 1510 1509
1478 1480 1482 1484 1487 1489 1491 1493 1494 1496 1498 1500 1501 1503 1504 1505 1506 1508 1509 1510 1511 1512 1511 1512 1514 1515 1515 1515 1514 1514 1514 1513 1512 1512 1511 1510 1509 1509 1508 1507 1506 1506 1505
1476 1478 1480 1482 1484 1487 1488 1489 1491 1493 1495 1496 1498 1500 1501 1502 1503 1504 1505 1506 1507 1507 1508 1507 1508 1509 1510 1510 1509 1509 1509 1508 1508 1507 1506 1505 1505 1504 1503 1502 1502 1501 1500
1474 1476 1478 1480 1482 1484 1485 1487 1489 1491 1492 1493 1495 1496 1497 1498 1499 1500 1501 1502 1503 1503 1504 1504 1503 1504 1504 1505 1504 1504 1504 1504 1503 1502 1502 1501 1500 1499 1498 1497 1496 1496 1495
1472 1474 1476 1478 1480 1482 1483 1485 1487 1488 1489 1490 1492 1493 1494 1495 1495 1496 1497 1498 1499 1499 1500 1500 1499 1499 1499 1500 1500 1499 1498 1498 1498 1497 1496 1495 1495 1494 1493 1492 1491 1490 1489
1469 1471 1473 1475 1477 1479 1481 1482 1484 1485 1486 1487 1488 1490 1490 1491 1491 1492 1493 1493 1494 1494 1495 1495 1495 1495 1495 1495 1494 1494 1493 1492 1492 1492 1491 1490 1489 1488 1487 1486 1485 1484 1483
1467 1469 1471 1473 1475 1476 1478 1480 1481 1482 1483 1484 1485 1486 1487 1487 1488 1488 1489 1489 1490 1490 1490 1491 1491 1490 1490 1490 1490 1489 1489 1487 1485 1486 1485 1484 1484 1482 1481 1480 1479 1478 1477
1464 1466 1468 1470 1472 1474 1475 1476 1478 1479 1479 1480 1481 1482 1483 1483 1484 1485 1485 1485 1486 1486 1487 1487 1486 1486 1486 1486 1485 1484 1484 1483 1481 1481 1480 1477 1477 1476 1475 1474 1473 1472 1471
1462 1463 1465 1467 1469 1471 1472 1473 1474 1475 1476 1477 1478 1479 1479 1480 1480 1481 1481 1481 1481 1482 1482 1482 1482 1482 1482 1481 1481 1480 1479 1478 1477 1476 1475 1472 1471 1470 1469 1468 1467 1466 1465
1458 1460 1463 1464 1466 1467 1469 1470 1471 1471 1472 1473 1474 1475 1475 1476 1476 1477 1477 1477 1476 1477 1477 1477 1477 1477 1476 1476 1476 1475 1474 1473 1470 1469 1470 1468 1465 1463 1462 1461 1461 1460 1459
1455 1457 1459 1461 1463 1464 1465 1466 1467 1468 1468 1469 1470 1471 1472 1472 1473 1473 1473 1473 1472 1472 1472 1472 1472 1472 1471 1470 1470 1470 1469 1468 1466 1464 1463 1463 1460 1459 1455 1453 1454 1454 1453